TimePDT,TemperatureF,Dew PointF,Humidity,Sea Level PressureIn,VisibilityMPH,Wind Direction,Wind SpeedMPH,Gust SpeedMPH,PrecipitationIn,Events,Conditions,WindDirDegrees,DateUTC
12:53 AM,73.0,21.9,15,30.05,10.0,WNW,6.9,-,N/A,,Clear,300,2012-10-26 07:53:00
1:53 AM,73.0,19.9,14,30.06,10.0,NW,10.4,-,N/A,,Clear,320,2012-10-26 08:53:00
2:53 AM,73.0,19.9,14,30.07,10.0,NW,5.8,-,N/A,,Clear,310,2012-10-26 09:53:00
3:53 AM,70.0,21.9,16,30.08,10.0,NW,6.9,-,N/A,,Clear,310,2012-10-26 10:53:00
4:53 AM,69.1,21.9,17,30.09,10.0,NW,6.9,-,N/A,,Clear,320,2012-10-26 11:53:00
5:53 AM,66.9,21.0,17,30.10,10.0,NNW,9.2,-,N/A,,Clear,330,2012-10-26 12:53:00
6:53 AM,66.9,21.9,18,30.12,10.0,NW,8.1,-,N/A,,Clear,310,2012-10-26 13:53:00
7:53 AM,69.1,21.0,16,30.14,10.0,NW,8.1,-,N/A,,Clear,320,2012-10-26 14:53:00
8:53 AM,71.1,21.9,16,30.16,10.0,NW,6.9,-,N/A,,Clear,310,2012-10-26 15:53:00
9:53 AM,73.9,21.0,14,30.16,10.0,NNW,6.9,-,N/A,,Clear,340,2012-10-26 16:53:00
10:53 AM,75.0,21.0,13,30.15,10.0,Variable,3.5,-,N/A,,Clear,0,2012-10-26 17:53:00
11:53 AM,78.1,19.9,11,30.13,10.0,NNE,8.1,-,N/A,,Clear,30,2012-10-26 18:53:00
12:53 PM,79.0,19.0,11,30.08,10.0,NW,6.9,-,N/A,,Clear,310,2012-10-26 19:53:00
1:53 PM,79.0,18.0,10,30.04,10.0,West,6.9,-,N/A,,Clear,260,2012-10-26 20:53:00
3:53 PM,81.0,16.0,9,30.00,10.0,Variable,6.9,-,N/A,,Clear,0,2012-10-26 22:53:00
4:53 PM,81.0,12.0,7,29.99,10.0,North,8.1,-,N/A,,Clear,360,2012-10-26 23:53:00
5:53 PM,78.1,10.0,7,29.99,10.0,North,6.9,-,N/A,,Clear,350,2012-10-27 00:53:00
6:53 PM,75.0,12.0,9,30.01,10.0,NNW,8.1,-,N/A,,Clear,340,2012-10-27 01:53:00
8:53 PM,71.1,15.1,12,30.01,10.0,West,5.8,-,N/A,,Clear,270,2012-10-27 03:53:00
10:53 PM,69.1,14.0,12,30.00,10.0,West,5.8,-,N/A,,Clear,260,2012-10-27 05:53:00
11:53 PM,70.0,10.0,10,29.99,10.0,West,6.9,-,N/A,,Clear,270,2012-10-27 06:53:00